TimeCST,TemperatureF,Dew PointF,Humidity,Sea Level PressureIn,VisibilityMPH,Wind Direction,Wind SpeedMPH,Gust SpeedMPH,PrecipitationIn,Events,Conditions,WindDirDegrees,DateUTC
12:51 AM,72.0,69.1,91,29.70,5.0,SSE,6.9,-,N/A,,Overcast,150,2012-03-03 06:51:00
1:51 AM,72.0,69.1,91,29.70,5.0,SSW,3.5,-,N/A,,Overcast,200,2012-03-03 07:51:00
2:34 AM,71.6,69.8,94,29.72,6.0,Calm,Calm,-,N/A,,Mostly Cloudy,0,2012-03-03 08:34:00
2:51 AM,72.0,69.1,91,29.73,6.0,NNW,6.9,-,N/A,,Overcast,340,2012-03-03 08:51:00
3:15 AM,71.6,69.8,94,29.73,6.0,North,10.4,-,N/A,,Mostly Cloudy,350,2012-03-03 09:15:00
3:42 AM,66.2,55.4,68,29.75,10.0,North,23.0,28.8,0.00,Rain,Light Rain,10,2012-03-03 09:42:00
3:49 AM,66.2,53.6,64,29.75,10.0,North,25.3,33.4,0.00,,Overcast,10,2012-03-03 09:49:00
3:51 AM,66.0,53.1,63,29.75,10.0,North,26.5,33.4,0.00,,Overcast,10,2012-03-03 09:51:00
4:51 AM,64.9,48.0,54,29.78,10.0,North,25.3,34.5,N/A,,Overcast,10,2012-03-03 10:51:00
5:51 AM,64.9,45.0,48,29.82,10.0,North,23.0,-,N/A,,Overcast,10,2012-03-03 11:51:00
6:12 AM,64.4,44.6,49,29.83,10.0,NNE,20.7,27.6,N/A,,Overcast,20,2012-03-03 12:12:00
6:51 AM,63.0,44.1,50,29.86,10.0,North,23.0,33.4,N/A,,Mostly Cloudy,10,2012-03-03 12:51:00
7:51 AM,62.1,42.1,48,29.92,10.0,North,27.6,34.5,N/A,,Overcast,360,2012-03-03 13:51:00
8:51 AM,62.1,39.9,44,29.96,10.0,North,28.8,34.5,N/A,,Mostly Cloudy,10,2012-03-03 14:51:00
9:51 AM,64.0,37.9,38,29.98,10.0,North,24.2,31.1,N/A,,Mostly Cloudy,10,2012-03-03 15:51:00
10:51 AM,69.1,37.9,32,30.01,10.0,North,23.0,28.8,N/A,,Scattered Clouds,350,2012-03-03 16:51:00
11:51 AM,71.1,42.1,35,30.03,10.0,NNW,19.6,27.6,N/A,,Partly Cloudy,330,2012-03-03 17:51:00
12:51 PM,71.1,35.1,27,30.02,10.0,NNW,24.2,31.1,N/A,,Scattered Clouds,340,2012-03-03 18:51:00
1:51 PM,73.9,32.0,21,30.02,10.0,North,25.3,35.7,N/A,,Partly Cloudy,350,2012-03-03 19:51:00
2:51 PM,73.9,28.9,19,30.02,10.0,North,27.6,33.4,N/A,,Clear,350,2012-03-03 20:51:00
3:51 PM,73.9,23.0,15,30.02,10.0,NNW,24.2,39.1,N/A,,Clear,340,2012-03-03 21:51:00
4:51 PM,71.1,21.0,15,30.03,10.0,NNW,24.2,32.2,N/A,,Clear,340,2012-03-03 22:51:00
5:51 PM,69.1,25.0,19,30.06,10.0,North,18.4,21.9,N/A,,Clear,360,2012-03-03 23:51:00
6:51 PM,64.9,26.1,23,30.11,10.0,North,15.0,-,N/A,,Clear,360,2012-03-04 00:51:00
7:51 PM,61.0,30.0,31,30.14,10.0,North,10.4,-,N/A,,Clear,360,2012-03-04 01:51:00
8:51 PM,57.9,33.1,39,30.17,10.0,NNE,9.2,-,N/A,,Clear,20,2012-03-04 02:51:00
9:51 PM,57.0,32.0,39,30.20,10.0,NE,6.9,-,N/A,,Clear,40,2012-03-04 03:51:00
10:51 PM,55.9,30.9,39,30.22,10.0,NE,4.6,-,N/A,,Clear,40,2012-03-04 04:51:00
11:51 PM,55.9,33.1,42,30.22,10.0,ENE,9.2,-,N/A,,Clear,60,2012-03-04 05:51:00